Location: Newark
(46.9811°N, 5.3169°E)
Time: 14:21:40
(UTC+00:00)

Tiangong 2 - Visible Passes

Search period start: 17 July 2019 00:00
Search period end: 27 July 2019 00:00
Orbit: 378 x 386 km, 42.8° (Epoch: 17 July)

Date Brightness Start Highest point End Pass type
(mag) Time Alt. Az. Time Alt. Az. Time Alt. Az.
17 Jul 2.5 21:14:09 10° WSW 21:16:41 23° SSW 21:16:58 22° S visible
18 Jul 2.2 20:13:44 10° WSW 20:16:31 29° SSW 20:19:08 11° SE visible
19 Jul 3.0 20:50:23 10° WSW 20:52:29 17° SSW 20:53:28 15° S visible
21 Jul 3.5 20:27:05 10° SW 20:28:13 11° SSW 20:29:20 10° S visible
